Location: Beeler
(38.4445°N, 100.1949°W)
Time: 06:57:35
(UTC+00:00)

Daily predictions for brighter satellites

Satellite Brightness Start Highest point End
(mag) Time Altitude Azimuth Time Altitude Azimuth Time Altitude Azimuth
Meteor 1-4 Rocket 4.2 12:02:12 10° N 12:05:28 37° ENE 12:08:44 10° SSE
USA 305 2.9 12:02:02 11° WSW 12:06:01 61° NW 12:10:06 10° NE
SL-16 R/B 3.1 12:01:58 10° NW 12:06:34 26° WSW 12:11:08 10° SSW
Meteor 1-31 Rocket 2.7 12:05:50 10° N 12:09:35 58° WNW 12:13:17 10° SSW
Meteor 1-16 Rocket 4.4 12:05:38 10° NNW 12:10:45 43° W 12:15:45 10° SSW
CZ-2C R/B 2.7 12:07:14 10° SSE 12:12:42 87° WSW 12:18:19 10° NNW
Cosmos 923 Rocket 3.9 12:07:37 10° SSW 12:12:48 71° WNW 12:18:00 10° NNE
GEOS 3 Rocket 3.6 12:07:55 10° NNE 12:13:01 65° NW 12:18:02 10° SW
Cosmos 1455 Rocket 3.1 12:08:50 10° NNW 12:13:12 56° W 12:17:31 10° S
Cosmos 1680 Rocket 3.5 12:10:24 10° SSW 12:15:36 90° WSW 12:20:55 10° NNE
SL-14 R/B 3.6 12:12:41 10° SSW 12:16:27 43° W 12:20:13 10° N
Cosmos 220 Rocket 4.1 12:12:38 10° NNW 12:16:46 49° WSW 12:20:49 10° S
Cosmos 2322 Rocket 3.1 12:15:44 10° NW 12:20:22 27° WSW 12:25:01 10° SSW
Meteor 2-5 Rocket 3.8 12:15:15 10° S 12:20:45 87° E 12:26:21 10° N
Cosmos 1626 3.5 12:18:26 10° WSW 12:21:05 19° WNW 12:23:45 10° NNW
Envisat 3.2 12:16:38 10° N 12:21:32 49° WNW 12:26:24 10° SW
Cosmos 1975 Rocket 3.9 12:17:51 10° SW 12:21:44 30° WNW 12:25:40 10° NNW
H-2A R/B 3.4 12:20:21 10° N 12:23:43 31° WNW 12:27:03 10° SW
Cosmos 1441 Rocket 3.5 12:21:05 10° SSW 12:24:37 40° WNW 12:28:10 10° N
BREEZE-M DEB (TANK) 4.1 12:24:30 10° NW 12:26:39 19° N 12:30:23 10° NE
Cosmos 1544 Rocket 3.5 12:22:53 10° NNW 12:27:16 71° W 12:31:36 10° S
SL-27 R/B 4.3 12:26:14 10° W 12:27:34 12° WNW 12:28:54 10° NW
Cosmos 2219 Rocket 2.4 12:24:30 10° NNW 12:30:12 81° ENE 12:35:52 10° SSE
USA 276 3.0 12:27:36 10° W 12:30:28 32° NNW 12:33:19 10° NE
YAOGAN 6 3.7 12:27:54 10° NNW 12:30:47 24° WNW 12:33:40 10° SW
Cosmos 2333 Rocket 2.3 12:25:06 10° NNW 12:30:52 80° WSW 12:36:37 10° SSE
Cosmos 2360 Rocket 2.8 12:26:37 10° NW 12:31:47 37° WSW 12:36:55 10° S
NOSS 3-3 (A) 3.8 12:28:28 10° SSW 12:34:02 85° WNW 12:40:22 10° NNE
NOSS 3-3 (C) 3.8 12:28:33 10° SSW 12:34:07 86° WNW 12:40:26 10° NNE
USA 307 3.4 12:30:44 10° WSW 12:34:42 41° NW 12:38:40 10° NE
Cosmos 2237 Rocket 4.3 12:30:46 10° N 12:35:27 26° ENE 12:40:05 10° ESE
